Regional Weather Roundup
Issued by NWS Jackson, KY

Home | Current Version | Previous Version | Text Only | Print | Product List | Glossary Off
Versions: 1 2 3 4 5 6 7 8 9 10 11 12 13 14 15 16 17 18 19 20 21 22 23 24 25 26 27

000
ASUS43 KJKL 192110
RWRJKL

EAST KENTUCKY HOURLY WEATHER ROUNDUP
NATIONAL WEATHER SERVICE JACKSON KY
400 PM EST SUN NOV 19 2017

NOTE: "FAIR" INDICATES FEW OR NO CLOUDS BELOW 12,000 FEET WITH
NO SIGNIFICANT WEATHER AND/OR OBSTRUCTIONS TO VISIBILITY.

* THESE REPORTS ARE NOT UNDER NWS QUALITY CONTROL AND MAY NOT
  REPORT WEATHER SUCH AS PRECIPITATION AND FOG.

KYZ079-080-083-085-087-088-110-112-115-119-120-192200
...EASTERN KENTUCKY...

CITY           SKY/WX    TMP DP  RH WIND       PRES   REMARKS
JACKSON        CLOUDY    38  29  70 VRB7      30.03R WCI  33
LONDON         CLOUDY    40  29  64 W10       30.07R WCI  33
SOMERSET*      CLOUDY    37  28  70 W10       30.12R WCI  30
MONTICELLO*    CLOUDY    41  29  62 W10       30.13R
WILLIAMSBURG*  CLOUDY    41  30  65 W6        30.07R
MIDDLESBORO*   CLOUDY    43  30  61 NW8       30.07R
HARLAN APT*    MOCLDY    41  28  60 SW9       30.04R
PIKE CO APT*   CLOUDY    38  30  72 SW3       30.00R
BIG SANDY APT* CLOUDY    40  29  65 W13G21    30.02R WCI  33
MOREHEAD APT*  CLOUDY    37  28  70 VRB6G16   30.07R WCI  33
$$

KYZ035-036-041-042-044-050-067-078-099-192200
...CENTRAL KENTUCKY...

CITY           SKY/WX    TMP DP  RH WIND       PRES   REMARKS
MT STERLING*   CLOUDY    36  30  80 NW14G20   30.09R WCI  27
FLEMING/MASON* CLOUDY    36  28  71 W18       30.07R WCI  26
DANVILLE*      CLOUDY    37  28  70 W8        30.12R WCI  31
LEXINGTON      CLOUDY    38  28  67 W14G21    30.09R WCI  30
FRANKFORT      CLOUDY    38  26  62 W7G20     30.09R WCI  33
LOUISVILLE     MOSUNNY   41  25  53 W14       30.12R
LEBANON*         N/A     37  27  65 W8        30.13R WCI  31
GLASGOW*       SUNNY     42  26  53 W8G16     30.15R
BOWLING GREEN  SUNNY     45  24  43 NW8G18    30.16R
$$

KYZ091>093-OHZ055-061-077-WVZ005-015-034-035-042-192200
...SOUTHERN OHIO/WEST VIRGINIA...

CITY           SKY/WX    TMP DP  RH WIND       PRES   REMARKS
COVINGTON      PTSUNNY   38  27  64 W15G24    30.05R WCI  29
COLUMBUS       CLOUDY    37  27  67 NW25      29.97R WCI  25
DAYTON         CLOUDY    32  24  72 W21G30    30.03R WCI  20
WILMINGTON     CLOUDY    35  26  69 W23       30.01R WCI  23
HUNTINGTON     CLOUDY    41  29  62 W12G17    30.00R
CHARLESTON     CLOUDY    41  26  55 SW14G20   29.97R
PINEVILLE*       N/A     38  29  70 MISG      30.02R
BECKLEY        CLOUDY    33  24  69 W18G31    29.93R WCI  22
BLUEFIELD      CLOUDY    31  24  75 W15G25    29.93R WCI  20
LOGAN CO APT*  CLOUDY    37  28  70 W6G13     29.97R WCI  33
$$

VAZ002-007-008-TNZ017-027-036-066-071-192200
...SOUTHWEST VIRGINIA/EAST TENNESSEE...

CITY           SKY/WX    TMP DP  RH WIND       PRES   REMARKS
WISE*          CLOUDY    34  30  86 W8        29.98S WCI  27
JONESVILLE*    CLOUDY    41  28  60 W8        30.05S
ABINGDON*      CLOUDY    41  28  59 W13G18    29.99R
BRISTOL        PTSUNNY   41  28  60 W10       30.03R
MORRISTOWN*    PTCLDY    45  28  53 NW6G15    30.04S
SEVIERVILLE*   PTCLDY    46  28  49 SW7       30.05F
KNOXVILLE      MOSUNNY   46  33  60 W12       30.05F
LAFOLLETTE*    MOCLDY    45  30  57 VRB3      30.10R
OAK RIDGE      SUNNY     46  29  51 VRB7      30.07F
CROSSVILLE     SUNNY     42  27  55 W10G20    30.06F
NASHVILLE      SUNNY     48  19  31 NW9       30.16R
$$

...KEY TO REMARKS...
VSB - VISIBILITY IN MILES
WCI - WIND CHILL INDEX
HX  - HEAT INDEX

$$




USA.gov is the U.S. government's official web portal to all federal, state and local government web resources and services.